Weather History for Andravida, Greece

Change the Weather History Date:

Saturday, October 27, 2012

  Actual Average Record
Temperature  
Mean Temperature 68 °F -  
Max Temperature 75 °F 65 °F 77 °F (1999)
Min Temperature 60 °F 49 °F 41 °F (1996)
Cooling Degree Days 2    
Growing Degree Days 18 (Base 50)    
Moisture  
Dew Point 61 °F    
Average Humidity 73    
Maximum Humidity 88    
Minimum Humidity 59    
Precipitation  
Precipitation 0.16 in - - ()
Sea Level Pressure  
Sea Level Pressure 29.79 in    
Wind  
Wind Speed 8 mph ()    
Max Wind Speed 18 mph    
Max Gust Speed -    
Visibility 6.2 miles    
Events Rain    
Averages and records for this station are not official NWS values.
T = Trace of Precipitation, MM = Missing Value Source: Averaged Metar Reports

Daily Weather History Graph

Daily Weather History Graph

Search for Another Location

Airport:

Trip Planner

Search our weather history database for the weather conditions in past years. The results will help you decide how hot, cold, wet, or windy it might be!

Date:

Astronomy

Oct. 27, 2012 Rise Set
Actual Time 7:55 AM EEST 6:41 PM EEST
Civil Twilight 7:28 AM EEST 7:08 PM EEST
Nautical Twilight 6:57 AM EEST 7:39 PM EEST
Astronomical Twilight 6:26 AM EEST 8:09 PM EEST
Moon 5:16 PM EEST (10/27) 5:34 AM EEST (10/27)
Length of Visible Light 11h 39m
Length of Day
10h 45m
Waxing Gibbous, 94% of the Moon is Illuminated
Oct 27
Waxing Gibbous
Oct 29
Full
Nov 7
Last Quarter
Nov 14
New
Nov 20
First Quarter

Hourly Weather History & Observations

Time (EEST) Temp. Dew Point Humidity Pressure Visibility Wind Dir Wind Speed Gust Speed Precip Events Conditions
12:20 AM 60.8 °F 55.4 °F 82% 29.89 in 6.2 mi Calm Calm - N/A   Scattered Clouds
12:50 AM 60.8 °F 55.4 °F 82% 29.89 in 6.2 mi Calm Calm - N/A   Scattered Clouds
3:00 AM 61 °F 55 °F 73% 29.88 in 6 mi Calm Calm - -   Scattered Clouds
3:20 AM 60.8 °F 55.4 °F 82% 29.86 in 6.2 mi Calm Calm - N/A   Scattered Clouds
3:50 AM 60.8 °F 55.4 °F 82% 29.86 in 6.2 mi Calm Calm - N/A   Scattered Clouds
5:50 AM 62.6 °F 57.2 °F 82% 29.83 in 6.2 mi SE 5.8 mph - N/A   Scattered Clouds
6:50 AM 64.4 °F 57.2 °F 77% 29.80 in 6.2 mi ESE 8.1 mph - N/A   Mostly Cloudy
7:20 AM 64.4 °F 57.2 °F 77% 29.80 in 6.2 mi ESE 8.1 mph - N/A   Mostly Cloudy
7:50 AM 64.4 °F 57.2 °F 77% 29.80 in 6.2 mi SSE 8.1 mph - N/A   Mostly Cloudy
8:20 AM 64.4 °F 57.2 °F 77% 29.80 in 6.2 mi SSE 8.1 mph - N/A   Mostly Cloudy
8:50 AM 68.0 °F 57.2 °F 68% 29.80 in 6.2 mi SE 11.5 mph - N/A   Mostly Cloudy
9:00 AM 67 °F 57 °F 62% 29.81 in 6 mi SE 11.5 mph - -   Partly Cloudy
9:20 AM 68.0 °F 57.2 °F 68% 29.80 in 6.2 mi SE 11.5 mph - N/A   Mostly Cloudy
9:50 AM 68.0 °F 57.2 °F 68% 29.80 in 6.2 mi SSE 9.2 mph - N/A   Mostly Cloudy
10:20 AM 62.6 °F 59.0 °F 88% 29.80 in 5.6 mi SSE 8.1 mph - N/A Rain Light Rain
10:50 AM 66.2 °F 59.0 °F 78% 29.80 in 6.2 mi SSE 11.5 mph - N/A Rain Light Rain
11:20 AM 66.2 °F 60.8 °F 83% 29.80 in 6.2 mi SSE 8.1 mph - N/A Rain Light Rain
11:50 AM 68.0 °F 60.8 °F 78% 29.80 in 6.2 mi SSE 11.5 mph - N/A Rain Light Rain
12:20 PM 69.8 °F 64.4 °F 83% 29.80 in 6.2 mi SSE 11.5 mph - N/A   Mostly Cloudy
12:50 PM 73.4 °F 62.6 °F 69% 29.80 in 6.2 mi South 18.4 mph - N/A   Mostly Cloudy
1:20 PM 73.4 °F 62.6 °F 69% 29.80 in 6.2 mi South 17.3 mph - N/A   Scattered Clouds
1:50 PM 75.2 °F 62.6 °F 65% 29.80 in 6.2 mi South 18.4 mph - N/A   Mostly Cloudy
2:20 PM 75.2 °F 62.6 °F 65% 29.80 in 6.2 mi South 18.4 mph - N/A   Mostly Cloudy
2:50 PM 75.2 °F 62.6 °F 65% 29.77 in 6.2 mi South 16.1 mph - N/A   Mostly Cloudy
3:00 PM 75 °F 63 °F 59% 29.78 in 6 mi South 16.1 mph - -   Partly Cloudy
3:20 PM 75.2 °F 62.6 °F 65% 29.77 in 6.2 mi South 16.1 mph - N/A   Mostly Cloudy
3:50 PM 73.4 °F 62.6 °F 69% 29.77 in 6.2 mi South 13.8 mph - N/A   Mostly Cloudy
5:20 PM 73.4 °F 64.4 °F 73% 29.74 in 6.2 mi South 16.1 mph - N/A   Mostly Cloudy
5:50 PM 73.4 °F 64.4 °F 73% 29.74 in 6.2 mi South 13.8 mph - N/A   Mostly Cloudy
6:20 PM 73.4 °F 64.4 °F 73% 29.74 in 6.2 mi South 12.7 mph - N/A   Mostly Cloudy
6:50 PM 73.4 °F 64.4 °F 73% 29.74 in 6.2 mi SSE 11.5 mph - N/A   Mostly Cloudy
7:20 PM 73.4 °F 64.4 °F 73% 29.74 in 6.2 mi SSE 12.7 mph - N/A   Mostly Cloudy
7:50 PM 73.4 °F 64.4 °F 73% 29.74 in 6.2 mi South 16.1 mph - N/A   Mostly Cloudy
8:20 PM 73.4 °F 64.4 °F 73% 29.74 in 6.2 mi South 16.1 mph - N/A   Mostly Cloudy
8:50 PM 73.4 °F 64.4 °F 73% 29.71 in 6.2 mi SSE 17.3 mph - N/A   Mostly Cloudy
9:00 PM 73 °F 64 °F 65% 29.73 in 6 mi SSE 17.3 mph - -   Partly Cloudy
9:50 PM 73.4 °F 62.6 °F 69% 29.74 in 6.2 mi SSE 16.1 mph - N/A   Mostly Cloudy
10:20 PM 73.4 °F 62.6 °F 69% 29.74 in 6.2 mi SSE 16.1 mph - N/A   Mostly Cloudy
10:50 PM 73.4 °F 60.8 °F 65% 29.74 in 6.2 mi South 17.3 mph - N/A   Mostly Cloudy
11:50 PM 73.4 °F 60.8 °F 65% 29.74 in 6.2 mi South 15.0 mph - N/A   Mostly Cloudy